Location: Unspecified
(40.7945°N, 0.0000°E)
Time: 10:35:52
(UTC+00:00)

deb Explorer IX - Pass Details

Date: 25 January 2021
Orbit: 538 x 1101 km, 38.8° (Epoch: 07 March)

Event Time Altitude Azimuth Distance (km) Brightness Sun altitude
Rises 17:40:49 0° 246° (WSW) 3,775 ? -6.4°
Reaches altitude 10° 17:43:42 10° 243° (WSW) 2,758 ? -6.9°
Maximum altitude 17:50:13 59° 166° (SSE) 1,027 ? -8.1°
Enters shadow 17:55:46 10° 88° (E) 2,365 ? -9.1°
